| time (UTC) | temp F | wind direction | speed MPH | gust MPH | rain 1hr in | rain 24hr in | rain mn in | humidity % | barometer mb |
| 20260508134029 | 52 | 298 | 1.0 | 2.0 | 0.00 | 0.00 | 0.00 | 60 | 679.5 |
| 20260508133030 | 52 | 338 | 3.0 | 6.0 | 0.00 | 0.00 | 0.00 | 62 | 679.5 |
| 20260508132029 | 51 | 307 | 1.0 | 3.0 | 0.00 | 0.00 | 0.00 | 64 | 679.5 |
| 20260508131030 | 50 | 324 | 2.0 | 4.0 | 0.00 | 0.00 | 0.00 | 64 | 679.5 |
| 20260508130051 | 50 | 281 | 2.0 | 3.0 | 0.00 | 0.00 | 0.00 | 68 | 679.4 |
| 20260508125030 | 49 | 327 | 2.0 | 4.0 | 0.00 | 0.00 | 0.00 | 70 | 679.4 |
| 20260508124015 | 48 | 302 | 1.0 | 3.0 | 0.00 | 0.00 | 0.00 | 71 | 679.4 |
| 20260508123030 | 47 | 292 | 1.0 | 2.0 | 0.00 | 0.00 | 0.00 | 73 | 679.4 |
| 20260508122051 | 46 | 251 | 1.0 | 4.0 | 0.00 | 0.00 | 0.00 | 75 | 679.4 |
| 20260508121031 | 45 | 294 | 1.0 | 3.0 | 0.00 | 0.00 | 0.00 | 77 | 679.3 |
| 20260508120031 | 43 | 327 | 1.0 | 3.0 | 0.00 | 0.00 | 0.00 | 77 | 679.3 |
| 20260508115031 | 41 | 246 | 2.0 | 3.0 | 0.00 | 0.00 | 0.00 | 77 | 679.2 |
| 20260508114031 | 40 | 263 | 1.0 | 3.0 | 0.00 | 0.00 | 0.00 | 77 | 679.2 |
| 20260508113031 | 40 | 249 | 2.0 | 3.0 | 0.00 | 0.00 | 0.00 | 77 | 679.2 |
| 20260508112017 | 39 | 237 | 2.0 | 3.0 | 0.00 | 0.00 | 0.00 | 77 | 679.2 |
| 20260508111131 | 38 | 260 | 1.0 | 1.0 | 0.00 | 0.00 | 0.00 | 77 | 679.2 |
| 20260508110017 | 38 | 308 | 1.0 | 2.0 | 0.00 | 0.00 | 0.00 | 77 | 679.2 |
| 20260508105032 | 38 | 259 | 2.0 | 2.0 | 0.00 | 0.00 | 0.00 | 77 | 679.2 |
| 20260508104032 | 38 | 287 | 1.0 | 1.0 | 0.00 | 0.00 | 0.00 | 77 | 679.2 |
| 20260508103032 | 38 | 278 | 1.0 | 1.0 | 0.00 | 0.00 | 0.00 | 77 | 679.2 |
| 20260508102032 | 38 | 277 | 1.0 | 1.0 | 0.00 | 0.00 | 0.00 | 77 | 679.2 |
| 20260508101033 | 39 | 297 | 1.0 | 1.0 | 0.00 | 0.00 | 0.00 | 77 | 679.2 |
| 20260508100033 | 39 | 281 | 1.0 | 1.0 | 0.00 | 0.00 | 0.00 | 77 | 679.2 |
| 20260508095033 | 40 | 294 | 1.0 | 1.0 | 0.00 | 0.00 | 0.00 | 77 | 679.2 |
| 20260508094033 | 40 | 288 | 1.0 | 2.0 | 0.00 | 0.00 | 0.00 | 77 | 679.2 |
| 20260508093038 | 40 | 265 | 1.0 | 1.0 | 0.00 | 0.00 | 0.00 | 77 | 679.2 |
| 20260508092018 | 40 | 242 | 1.0 | 2.0 | 0.00 | 0.00 | 0.00 | 77 | 679.3 |
| 20260508091018 | 40 | 236 | 1.0 | 2.0 | 0.00 | 0.00 | 0.00 | 77 | 679.2 |
| 20260508090018 | 41 | 242 | 1.0 | 2.0 | 0.00 | 0.00 | 0.00 | 77 | 679.2 |
| 20260508085019 | 41 | 242 | 1.0 | 1.0 | 0.00 | 0.00 | 0.00 | 77 | 679.2 |
| 20260508084038 | 41 | 203 | 2.0 | 2.0 | 0.00 | 0.00 | 0.00 | 77 | 679.2 |
| 20260508083019 | 41 | 231 | 1.0 | 2.0 | 0.00 | 0.00 | 0.00 | 77 | 679.3 |
| 20260508082018 | 41 | 0.0 | 0.0 | 0.00 | 0.00 | 0.00 | 77 | 679.3 | |
| 20260508081019 | 41 | 174 | 2.0 | 3.0 | 0.00 | 0.00 | 0.00 | 77 | 679.3 |
| 20260508080019 | 41 | 0.0 | 0.0 | 0.00 | 0.00 | 0.00 | 76 | 679.3 | |
| 20260508075020 | 41 | 3 | 0.0 | 1.0 | 0.00 | 0.00 | 0.00 | 76 | 679.3 |
| 20260508074020 | 41 | 220 | 1.0 | 2.0 | 0.00 | 0.00 | 0.00 | 75 | 679.3 |
| 20260508073039 | 41 | 265 | 0.0 | 1.0 | 0.00 | 0.00 | 0.00 | 74 | 679.3 |
| 20260508072019 | 41 | 336 | 0.0 | 1.0 | 0.00 | 0.00 | 0.00 | 74 | 679.3 |
| 20260508071019 | 41 | 0.0 | 0.0 | 0.00 | 0.00 | 0.00 | 74 | 679.3 | |
| 20260508070020 | 42 | 0.0 | 0.0 | 0.00 | 0.00 | 0.00 | 73 | 679.3 | |
| 20260508065020 | 42 | 332 | 0.0 | 1.0 | 0.00 | 0.00 | 0.00 | 74 | 679.3 |
| 20260508064020 | 42 | 0 | 0.0 | 0.0 | 0.00 | 0.00 | 0.00 | 73 | 679.3 |
| 20260508063020 | 42 | 0.0 | 0.0 | 0.00 | 0.00 | 0.00 | 73 | 679.3 | |
| 20260508062020 | 42 | 351 | 1.0 | 2.0 | 0.00 | 0.00 | 0.00 | 72 | 679.3 |
| 20260508061100 | 41 | 339 | 0.0 | 1.0 | 0.00 | 0.00 | 0.00 | 70 | 679.3 |
| 20260508060020 | 42 | 335 | 0.0 | 1.0 | 0.00 | 0.00 | 0.00 | 70 | 679.3 |
| 20260508055020 | 42 | 0.0 | 0.0 | 0.00 | 0.00 | 0.00 | 70 | 679.3 | |
| 20260508054021 | 42 | 0 | 0.0 | 0.0 | 0.00 | 0.00 | 0.00 | 70 | 679.3 |
| 20260508053020 | 42 | 162 | 2.0 | 3.0 | 0.00 | 0.00 | 0.00 | 71 | 679.3 |
| 20260508052102 | 42 | 0.0 | 0.0 | 0.00 | 0.00 | 0.00 | 70 | 679.3 | |
| 20260508051021 | 42 | 237 | 0.0 | 1.0 | 0.00 | 0.00 | 0.00 | 72 | 679.3 |
| 20260508050021 | 42 | 225 | 2.0 | 2.0 | 0.00 | 0.00 | 0.00 | 72 | 679.3 |
| 20260508044022 | 42 | 160 | 0.0 | 2.0 | 0.00 | 0.00 | 0.00 | 70 | 679.3 |
| 20260508043022 | 42 | 148 | 0.0 | 1.0 | 0.00 | 0.00 | 0.00 | 66 | 679.3 |
| 20260508042022 | 42 | 0 | 0.0 | 0.0 | 0.00 | 0.00 | 0.00 | 70 | 679.3 |
| 20260508041042 | 42 | 270 | 0.0 | 1.0 | 0.00 | 0.00 | 0.00 | 69 | 679.3 |
| 20260508040022 | 41 | 354 | 2.0 | 4.0 | 0.00 | 0.00 | 0.00 | 70 | 679.3 |
| 20260508035023 | 41 | 265 | 1.0 | 2.0 | 0.00 | 0.00 | 0.00 | 69 | 679.3 |
| 20260508034023 | 41 | 278 | 1.0 | 1.0 | 0.00 | 0.00 | 0.00 | 70 | 679.3 |
| 20260508033023 | 41 | 272 | 0.0 | 1.0 | 0.00 | 0.00 | 0.00 | 70 | 679.3 |
| 20260508032023 | 41 | 231 | 1.0 | 2.0 | 0.00 | 0.00 | 0.00 | 70 | 679.3 |
| 20260508031043 | 41 | 210 | 0.0 | 1.0 | 0.00 | 0.00 | 0.00 | 70 | 679.3 |
| 20260508030023 | 41 | 0.0 | 0.0 | 0.00 | 0.00 | 0.00 | 68 | 679.3 | |
| 20260508025043 | 41 | 226 | 1.0 | 1.0 | 0.00 | 0.00 | 0.00 | 68 | 679.3 |
| 20260508024023 | 41 | 0.0 | 0.0 | 0.00 | 0.00 | 0.00 | 67 | 679.3 | |
| 20260508023023 | 41 | 0.0 | 0.0 | 0.00 | 0.00 | 0.00 | 67 | 679.3 | |
| 20260508022023 | 42 | 0.0 | 0.0 | 0.00 | 0.00 | 0.00 | 66 | 679.3 | |
| 20260508021023 | 42 | 0.0 | 0.0 | 0.00 | 0.00 | 0.00 | 66 | 679.3 | |
| 20260508020023 | 42 | 0.0 | 0.0 | 0.00 | 0.00 | 0.00 | 66 | 679.3 | |
| 20260508015024 | 42 | 0.0 | 0.0 | 0.00 | 0.00 | 0.00 | 64 | 679.3 | |
| 20260508014024 | 43 | 268 | 1.0 | 1.0 | 0.00 | 0.00 | 0.00 | 63 | 679.3 |
| 20260508013024 | 43 | 0 | 0.0 | 0.0 | 0.00 | 0.00 | 0.00 | 63 | 679.4 |
| 20260508012024 | 44 | 0.0 | 0.0 | 0.00 | 0.00 | 0.00 | 62 | 679.4 | |
| 20260508011024 | 45 | 296 | 0.0 | 1.0 | 0.00 | 0.00 | 0.00 | 61 | 679.4 |
| 20260508010024 | 45 | 0.0 | 0.0 | 0.00 | 0.00 | 0.00 | 60 | 679.4 | |
| 20260508005025 | 46 | 0.0 | 0.0 | 0.00 | 0.00 | 0.00 | 60 | 679.4 | |
| 20260508004025 | 46 | 0.0 | 0.0 | 0.00 | 0.00 | 0.00 | 58 | 679.4 | |
| 20260508003025 | 47 | 360 | 1.0 | 2.0 | 0.00 | 0.00 | 0.00 | 56 | 679.5 |
| 20260508002045 | 48 | 330 | 1.0 | 2.0 | 0.00 | 0.00 | 0.00 | 56 | 679.5 |
| 20260508001025 | 48 | 335 | 0.0 | 2.0 | 0.00 | 0.00 | 0.00 | 56 | 679.5 |
| 20260508000025 | 49 | 345 | 1.0 | 3.0 | 0.00 | 0.00 | 0.00 | 55 | 679.5 |
| 20260507235025 | 49 | 354 | 2.0 | 4.0 | 0.00 | 0.00 | 0.00 | 53 | 679.5 |
| 20260507234026 | 50 | 340 | 1.0 | 4.0 | 0.00 | 0.00 | 0.00 | 53 | 679.5 |
| 20260507233046 | 51 | 341 | 2.0 | 4.0 | 0.00 | 0.00 | 0.00 | 52 | 679.5 |
| 20260507232026 | 51 | 352 | 2.0 | 3.0 | 0.00 | 0.00 | 0.00 | 52 | 679.5 |
| 20260507231026 | 51 | 320 | 3.0 | 5.0 | 0.00 | 0.00 | 0.00 | 51 | 679.5 |
| 20260507230026 | 52 | 344 | 2.0 | 4.0 | 0.00 | 0.00 | 0.00 | 51 | 679.5 |
| 20260507225026 | 52 | 327 | 4.0 | 9.0 | 0.00 | 0.00 | 0.00 | 51 | 679.5 |
| 20260507224027 | 52 | 334 | 3.0 | 6.0 | 0.00 | 0.00 | 0.00 | 51 | 679.5 |
| 20260507223027 | 53 | 335 | 4.0 | 7.0 | 0.00 | 0.00 | 0.00 | 51 | 679.6 |
| 20260507222047 | 53 | 336 | 3.0 | 5.0 | 0.00 | 0.00 | 0.00 | 52 | 679.6 |
| 20260507221027 | 52 | 334 | 2.0 | 6.0 | 0.00 | 0.00 | 0.00 | 53 | 679.5 |
| 20260507220027 | 52 | 310 | 2.0 | 4.0 | 0.00 | 0.00 | 0.00 | 52 | 679.6 |
| 20260507215047 | 52 | 330 | 3.0 | 5.0 | 0.00 | 0.00 | 0.00 | 55 | 679.5 |
| 20260507214027 | 50 | 333 | 2.0 | 5.0 | 0.00 | 0.00 | 0.00 | 57 | 679.5 |
| 20260507213027 | 50 | 323 | 3.0 | 7.0 | 0.00 | 0.00 | 0.00 | 59 | 679.5 |
| 20260507212027 | 49 | 333 | 3.0 | 5.0 | 0.00 | 0.00 | 0.00 | 60 | 679.5 |
| 20260507211028 | 49 | 343 | 4.0 | 8.0 | 0.00 | 0.00 | 0.00 | 58 | 679.5 |
| 20260507210028 | 50 | 334 | 4.0 | 9.0 | 0.00 | 0.00 | 0.00 | 56 | 679.5 |
| 20260507205028 | 50 | 332 | 4.0 | 6.0 | 0.00 | 0.00 | 0.00 | 56 | 679.5 |
| 20260507204028 | 51 | 323 | 3.0 | 6.0 | 0.00 | 0.00 | 0.00 | 55 | 679.5 |
| 20260507203028 | 51 | 330 | 3.0 | 7.0 | 0.00 | 0.00 | 0.00 | 53 | 679.5 |
| 20260507202049 | 52 | 330 | 5.0 | 10.0 | 0.00 | 0.00 | 0.00 | 52 | 679.6 |
| 20260507201029 | 52 | 336 | 3.0 | 5.0 | 0.00 | 0.00 | 0.00 | 52 | 679.6 |
| 20260507200029 | 53 | 322 | 3.0 | 6.0 | 0.00 | 0.00 | 0.00 | 51 | 679.6 |
| 20260507195029 | 53 | 323 | 3.0 | 5.0 | 0.00 | 0.00 | 0.00 | 49 | 679.6 |
| 20260507194049 | 54 | 324 | 3.0 | 4.0 | 0.00 | 0.00 | 0.00 | 47 | 679.6 |
| 20260507193029 | 55 | 341 | 4.0 | 7.0 | 0.00 | 0.00 | 0.00 | 46 | 679.6 |
| 20260507192029 | 56 | 327 | 3.0 | 4.0 | 0.00 | 0.00 | 0.00 | 46 | 679.6 |
| 20260507191029 | 56 | 341 | 3.0 | 5.0 | 0.00 | 0.00 | 0.00 | 45 | 679.6 |
| 20260507190029 | 57 | 312 | 2.0 | 5.0 | 0.00 | 0.00 | 0.00 | 44 | 679.7 |
| 20260507185029 | 57 | 316 | 2.0 | 8.0 | 0.00 | 0.00 | 0.00 | 44 | 679.7 |
| 20260507184029 | 57 | 244 | 2.0 | 5.0 | 0.00 | 0.00 | 0.00 | 43 | 679.7 |
| 20260507183030 | 58 | 331 | 2.0 | 4.0 | 0.00 | 0.00 | 0.00 | 42 | 679.7 |
| 20260507182110 | 58 | 325 | 2.0 | 7.0 | 0.00 | 0.00 | 0.00 | 42 | 679.7 |
| 20260507181030 | 59 | 328 | 3.0 | 5.0 | 0.00 | 0.00 | 0.00 | 42 | 679.7 |
| 20260507180030 | 59 | 333 | 3.0 | 7.0 | 0.00 | 0.00 | 0.00 | 42 | 679.7 |
| 20260507175031 | 59 | 330 | 3.0 | 8.0 | 0.00 | 0.00 | 0.00 | 42 | 679.7 |
| 20260507174031 | 59 | 4 | 3.0 | 7.0 | 0.00 | 0.00 | 0.00 | 42 | 679.7 |
| 20260507173031 | 59 | 333 | 5.0 | 8.0 | 0.00 | 0.00 | 0.00 | 44 | 679.7 |
| 20260507172031 | 60 | 335 | 4.0 | 7.0 | 0.00 | 0.00 | 0.00 | 43 | 679.7 |
| 20260507171031 | 60 | 312 | 3.0 | 11.0 | 0.00 | 0.00 | 0.00 | 43 | 679.8 |
| 20260507170031 | 59 | 316 | 2.0 | 8.0 | 0.00 | 0.00 | 0.00 | 45 | 679.7 |
| 20260507165031 | 58 | 324 | 3.0 | 6.0 | 0.00 | 0.00 | 0.00 | 46 | 679.7 |
| 20260507164032 | 58 | 323 | 3.0 | 5.0 | 0.00 | 0.00 | 0.00 | 45 | 679.7 |
| 20260507163032 | 59 | 345 | 3.0 | 5.0 | 0.00 | 0.00 | 0.00 | 43 | 679.7 |
| 20260507162032 | 59 | 336 | 3.0 | 6.0 | 0.00 | 0.00 | 0.00 | 43 | 679.7 |
| 20260507161032 | 60 | 333 | 3.0 | 7.0 | 0.00 | 0.00 | 0.00 | 41 | 679.8 |
| 20260507160032 | 62 | 344 | 2.0 | 4.0 | 0.00 | 0.00 | 0.00 | 42 | 679.8 |
| 20260507155032 | 62 | 318 | 3.0 | 6.0 | 0.00 | 0.00 | 0.00 | 43 | 679.8 |
| 20260507154017 | 62 | 325 | 2.0 | 4.0 | 0.00 | 0.00 | 0.00 | 41 | 679.8 |
| 20260507153017 | 62 | 331 | 3.0 | 6.0 | 0.00 | 0.00 | 0.00 | 43 | 679.8 |
| 20260507152017 | 62 | 301 | 2.0 | 5.0 | 0.00 | 0.00 | 0.00 | 43 | 679.8 |
| 20260507151017 | 62 | 343 | 3.0 | 6.0 | 0.00 | 0.00 | 0.00 | 43 | 679.8 |
| 20260507150038 | 61 | 342 | 3.0 | 6.0 | 0.00 | 0.00 | 0.00 | 45 | 679.8 |
| 20260507145017 | 60 | 294 | 2.0 | 4.0 | 0.00 | 0.00 | 0.00 | 48 | 679.7 |
| 20260507144018 | 59 | 337 | 2.0 | 6.0 | 0.00 | 0.00 | 0.00 | 51 | 679.6 |
| 20260507143018 | 57 | 353 | 3.0 | 5.0 | 0.00 | 0.00 | 0.00 | 53 | 679.6 |
| 20260507142018 | 55 | 319 | 3.0 | 6.0 | 0.00 | 0.00 | 0.00 | 59 | 679.6 |
| 20260507141038 | 53 | 270 | 1.0 | 2.0 | 0.00 | 0.00 | 0.00 | 62 | 679.5 |
| 20260507140018 | 51 | 331 | 2.0 | 4.0 | 0.00 | 0.00 | 0.00 | 64 | 679.5 |
| 20260507135018 | 50 | 315 | 3.0 | 7.0 | 0.00 | 0.00 | 0.00 | 66 | 679.5 |